Powrót do katalogu

STARLINK-3571

AktywnyŁącznośćVLEO
NORAD 51857·PAYLOAD·🇺🇸 United States

Wystrzelony Mar 3, 2022 z Cape Canaveral Space Force Station

Loading…

Następne Przeloty (najbliższe 24 godziny)

TLE

ŚwieżeSource: CelesTrak SupGP

Epoka: Sep 14, 2026, 21:55 UTC

1 51857C 22022F   26257.91368056  .00032115  00000+0  10327-2 0  2577
2 51857  53.1576 236.8577 0001371  93.6498 206.3743 15.31687797    14

Śledź STARLINK-3571 w czasie rzeczywistym z AllMySat

Download on the App Store